Time,TemperatureF,DewpointF,PressureIn,WindDirection,WindDirectionDegrees,WindSpeedMPH,WindSpeedGustMPH,Humidity,HourlyPrecipIn,Conditions,Clouds,dailyrainin,SolarRadiationWatts/m^2,SoftwareType,DateUTC
2013-07-16 00:00:00,67.1,64.4,30.34,East,83,0.0,0.0,91,0.00,,---,0.00,0.00,VWS V14.01,2013-07-16 04:00:00,
2013-07-16 00:01:00,67.1,64.4,30.34,East,83,0.0,0.0,91,0.00,,---,0.02,0.00,VWS V14.01,2013-07-16 04:01:00,
2013-07-16 00:03:00,67.1,64.4,30.34,East,83,0.0,0.0,91,0.00,,---,0.00,0.00,VWS V14.01,2013-07-16 04:03:00,
2013-07-16 00:08:00,66.9,64.2,30.34,East,83,0.0,0.0,91,0.00,,---,0.00,0.00,VWS V14.01,2013-07-16 04:08:00,
2013-07-16 00:13:00,66.8,64.1,30.34,East,83,0.0,0.0,91,0.00,,---,0.00,0.00,VWS V14.01,2013-07-16 04:13:00,
2013-07-16 00:18:00,66.7,64.0,30.34,East,83,0.0,0.0,91,0.00,,---,0.00,0.00,VWS V14.01,2013-07-16 04:18:00,
2013-07-16 00:24:00,66.6,64.2,30.34,East,83,0.0,0.0,92,0.00,,---,0.00,0.00,VWS V14.01,2013-07-16 04:24:00,
2013-07-16 00:29:00,66.5,64.1,30.34,East,83,0.0,0.0,92,0.00,,---,0.00,0.00,VWS V14.01,2013-07-16 04:29:00,
2013-07-16 00:30:00,66.4,64.0,30.34,East,83,0.0,0.0,92,0.00,,---,0.00,0.00,VWS V14.01,2013-07-16 04:30:00,
2013-07-16 00:34:00,66.3,63.9,30.34,East,83,0.0,0.0,92,0.00,,---,0.00,0.00,VWS V14.01,2013-07-16 04:34:00,
2013-07-16 00:39:00,66.2,63.8,30.35,East,83,0.0,0.0,92,0.00,,---,0.00,0.00,VWS V14.01,2013-07-16 04:39:00,
2013-07-16 00:44:00,66.1,63.7,30.35,East,83,0.0,0.0,92,0.00,,---,0.00,0.00,VWS V14.01,2013-07-16 04:44:00,
2013-07-16 00:49:00,66.0,63.6,30.35,East,83,0.0,0.0,92,0.00,,---,0.00,0.00,VWS V14.01,2013-07-16 04:49:00,
2013-07-16 00:54:00,65.9,63.5,30.35,East,83,0.0,0.0,92,0.00,,---,0.00,0.00,VWS V14.01,2013-07-16 04:54:00,
2013-07-16 00:59:00,65.8,63.4,30.35,East,83,0.0,0.0,92,0.00,,---,0.00,0.00,VWS V14.01,2013-07-16 04:59:00,
2013-07-16 01:00:00,65.7,63.3,30.35,East,83,0.0,0.0,92,0.00,,---,0.00,0.00,VWS V14.01,2013-07-16 05:00:00,
2013-07-16 01:05:00,65.7,63.3,30.35,East,83,0.0,0.0,92,0.00,,---,0.00,0.00,VWS V14.01,2013-07-16 05:05:00,
2013-07-16 01:10:00,65.6,63.2,30.35,East,83,0.0,0.0,92,0.00,,---,0.00,0.00,VWS V14.01,2013-07-16 05:10:00,
2013-07-16 01:15:00,65.5,63.1,30.35,East,83,0.0,0.0,92,0.00,,---,0.00,0.00,VWS V14.01,2013-07-16 05:15:00,
2013-07-16 01:20:00,65.4,63.0,30.35,East,83,0.0,0.0,92,0.01,,---,0.01,0.00,VWS V14.01,2013-07-16 05:20:00,
2013-07-16 01:25:00,65.4,63.0,30.34,East,83,0.0,0.0,92,0.01,,---,0.01,0.00,VWS V14.01,2013-07-16 05:25:00,
2013-07-16 01:30:00,65.3,63.2,30.35,East,83,0.0,0.0,93,0.01,,---,0.01,0.00,VWS V14.01,2013-07-16 05:30:00,
2013-07-16 01:35:00,65.3,63.2,30.34,East,83,0.0,0.0,93,0.01,,---,0.01,0.00,VWS V14.01,2013-07-16 05:35:00,
2013-07-16 01:40:00,65.4,63.6,30.34,East,83,0.0,0.0,94,0.01,,---,0.01,0.00,VWS V14.01,2013-07-16 05:40:00,
2013-07-16 01:45:00,65.4,63.6,30.34,East,83,0.0,0.0,94,0.01,,---,0.01,0.00,VWS V14.01,2013-07-16 05:45:00,
2013-07-16 01:51:00,65.4,63.6,30.34,East,83,0.0,0.0,94,0.01,,---,0.01,0.00,VWS V14.01,2013-07-16 05:51:00,
2013-07-16 01:56:00,65.5,64.0,30.34,East,83,0.0,0.0,95,0.01,,---,0.01,0.00,VWS V14.01,2013-07-16 05:56:00,
2013-07-16 02:00:00,65.5,64.0,30.34,East,83,0.0,0.0,95,0.01,,---,0.01,0.00,VWS V14.01,2013-07-16 06:00:00,
2013-07-16 02:01:00,65.5,64.0,30.34,East,83,0.0,0.0,95,0.01,,---,0.01,0.00,VWS V14.01,2013-07-16 06:01:00,
2013-07-16 02:06:00,65.5,64.0,30.34,East,83,0.0,0.0,95,0.01,,---,0.01,0.00,VWS V14.01,2013-07-16 06:06:00,
2013-07-16 02:11:00,65.5,64.0,30.34,East,83,0.0,0.0,95,0.01,,---,0.01,0.00,VWS V14.01,2013-07-16 06:11:00,
2013-07-16 02:16:00,65.4,63.6,30.34,East,83,0.0,0.0,94,0.01,,---,0.01,0.00,VWS V14.01,2013-07-16 06:16:00,
2013-07-16 02:21:00,65.3,63.5,30.34,East,83,0.0,0.0,94,0.01,,---,0.01,0.00,VWS V14.01,2013-07-16 06:21:00,
2013-07-16 02:26:00,65.2,63.4,30.34,East,83,0.0,0.0,94,0.01,,---,0.01,0.00,VWS V14.01,2013-07-16 06:26:00,
2013-07-16 02:30:00,65.0,63.2,30.33,East,83,0.0,0.0,94,0.01,,---,0.01,0.00,VWS V14.01,2013-07-16 06:30:00,
2013-07-16 02:32:00,65.1,63.3,30.33,East,83,0.0,0.0,94,0.01,,---,0.01,0.00,VWS V14.01,2013-07-16 06:32:00,
2013-07-16 02:37:00,65.0,63.2,30.33,East,83,0.0,0.0,94,0.00,,---,0.01,0.00,VWS V14.01,2013-07-16 06:37:00,
2013-07-16 02:42:00,65.0,63.2,30.33,East,83,0.0,0.0,94,0.00,,---,0.01,0.00,VWS V14.01,2013-07-16 06:42:00,
2013-07-16 02:47:00,65.0,63.2,30.34,East,83,0.0,0.0,94,0.00,,---,0.01,0.00,VWS V14.01,2013-07-16 06:47:00,
2013-07-16 02:52:00,64.8,63.0,30.34,East,83,0.0,0.0,94,0.00,,---,0.01,0.00,VWS V14.01,2013-07-16 06:52:00,
2013-07-16 02:57:00,64.8,63.0,30.34,East,83,0.0,0.0,94,0.00,,---,0.01,0.00,VWS V14.01,2013-07-16 06:57:00,
2013-07-16 03:00:00,64.6,62.8,30.34,East,83,0.0,0.0,94,0.00,,---,0.01,0.00,VWS V14.01,2013-07-16 07:00:00,
2013-07-16 03:02:00,64.7,62.9,30.34,East,83,0.0,0.0,94,0.00,,---,0.01,0.00,VWS V14.01,2013-07-16 07:02:00,
2013-07-16 03:07:00,64.5,62.7,30.33,East,83,0.0,0.0,94,0.00,,---,0.01,0.00,VWS V14.01,2013-07-16 07:07:00,
2013-07-16 03:13:00,64.4,62.6,30.33,East,83,0.0,0.0,94,0.00,,---,0.01,0.00,VWS V14.01,2013-07-16 07:13:00,
2013-07-16 03:18:00,64.3,62.5,30.33,East,83,0.0,0.0,94,0.00,,---,0.01,0.00,VWS V14.01,2013-07-16 07:18:00,
2013-07-16 03:23:00,64.3,62.8,30.34,East,83,0.0,0.0,95,0.00,,---,0.01,0.00,VWS V14.01,2013-07-16 07:23:00,
2013-07-16 03:28:00,64.2,62.7,30.33,East,83,0.0,0.0,95,0.00,,---,0.01,0.00,VWS V14.01,2013-07-16 07:28:00,
2013-07-16 03:30:00,64.2,62.7,30.33,East,83,0.0,0.0,95,0.00,,---,0.01,0.00,VWS V14.01,2013-07-16 07:30:00,
2013-07-16 03:33:00,64.2,62.7,30.33,East,83,0.0,0.0,95,0.00,,---,0.01,0.00,VWS V14.01,2013-07-16 07:33:00,
2013-07-16 03:38:00,64.2,62.7,30.33,East,83,0.0,0.0,95,0.00,,---,0.01,0.00,VWS V14.01,2013-07-16 07:38:00,
2013-07-16 03:43:00,64.1,62.6,30.33,East,83,0.0,0.0,95,0.00,,---,0.01,0.00,VWS V14.01,2013-07-16 07:43:00,
2013-07-16 03:48:00,64.1,62.6,30.33,East,83,0.0,0.0,95,0.00,,---,0.01,0.00,VWS V14.01,2013-07-16 07:48:00,
2013-07-16 03:53:00,64.0,62.5,30.33,East,83,0.0,0.0,95,0.00,,---,0.01,0.00,VWS V14.01,2013-07-16 07:53:00,
2013-07-16 03:59:00,64.0,62.5,30.33,East,83,0.0,0.0,95,0.00,,---,0.01,0.00,VWS V14.01,2013-07-16 07:59:00,
2013-07-16 04:00:00,63.9,62.4,30.33,East,83,0.0,0.0,95,0.00,,---,0.01,0.00,VWS V14.01,2013-07-16 08:00:00,
2013-07-16 04:04:00,63.9,62.4,30.33,East,83,0.0,0.0,95,0.00,,---,0.01,0.00,VWS V14.01,2013-07-16 08:04:00,
2013-07-16 04:09:00,63.8,62.3,30.33,East,83,0.0,0.0,95,0.00,,---,0.01,0.00,VWS V14.01,2013-07-16 08:09:00,
2013-07-16 04:14:00,63.7,62.2,30.33,East,83,0.0,0.0,95,0.00,,---,0.01,0.00,VWS V14.01,2013-07-16 08:14:00,
2013-07-16 04:19:00,63.5,62.0,30.33,East,83,0.0,0.0,95,0.00,,---,0.01,0.00,VWS V14.01,2013-07-16 08:19:00,
2013-07-16 04:24:00,63.4,61.7,30.33,East,83,0.0,0.0,94,0.00,,---,0.01,0.00,VWS V14.01,2013-07-16 08:24:00,
2013-07-16 04:29:00,63.2,61.8,30.33,East,83,0.0,0.0,95,0.00,,---,0.01,0.00,VWS V14.01,2013-07-16 08:29:00,
2013-07-16 04:30:00,63.2,61.8,30.33,East,83,0.0,0.0,95,0.00,,---,0.01,0.00,VWS V14.01,2013-07-16 08:30:00,
2013-07-16 04:35:00,63.2,61.8,30.33,East,83,0.0,0.0,95,0.00,,---,0.01,0.00,VWS V14.01,2013-07-16 08:35:00,
2013-07-16 04:40:00,63.1,61.7,30.33,East,83,0.0,0.0,95,0.00,,---,0.01,0.00,VWS V14.01,2013-07-16 08:40:00,
2013-07-16 04:45:00,63.1,61.7,30.33,East,83,0.0,0.0,95,0.00,,---,0.01,0.00,VWS V14.01,2013-07-16 08:45:00,
2013-07-16 04:50:00,63.0,61.5,30.33,East,83,0.0,0.0,95,0.00,,---,0.01,0.00,VWS V14.01,2013-07-16 08:50:00,
2013-07-16 04:55:00,63.0,61.5,30.33,East,83,0.0,0.0,95,0.00,,---,0.01,0.00,VWS V14.01,2013-07-16 08:55:00,
2013-07-16 05:00:00,62.9,61.5,30.33,East,83,0.0,0.0,95,0.00,,---,0.01,0.00,VWS V14.01,2013-07-16 09:00:00,
2013-07-16 05:05:00,62.9,61.5,30.33,East,83,0.0,0.0,95,0.00,,---,0.01,0.00,VWS V14.01,2013-07-16 09:05:00,
2013-07-16 05:11:00,62.8,61.3,30.33,East,83,0.0,0.0,95,0.00,,---,0.01,0.00,VWS V14.01,2013-07-16 09:11:00,
2013-07-16 05:16:00,62.8,61.3,30.33,East,83,0.0,0.0,95,0.00,,---,0.01,0.00,VWS V14.01,2013-07-16 09:16:00,
2013-07-16 05:21:00,62.8,61.3,30.33,East,83,0.0,0.0,95,0.00,,---,0.01,0.00,VWS V14.01,2013-07-16 09:21:00,
2013-07-16 05:26:00,62.7,61.2,30.33,East,83,0.0,0.0,95,0.00,,---,0.01,0.00,VWS V14.01,2013-07-16 09:26:00,
2013-07-16 05:30:00,62.7,61.2,30.33,East,83,0.0,0.0,95,0.00,,---,0.01,0.00,VWS V14.01,2013-07-16 09:30:00,
2013-07-16 05:31:00,62.7,61.2,30.34,East,83,0.0,0.0,95,0.00,,---,0.01,0.00,VWS V14.01,2013-07-16 09:31:00,
2013-07-16 05:36:00,62.7,61.2,30.33,East,83,0.0,0.0,95,0.00,,---,0.01,0.00,VWS V14.01,2013-07-16 09:36:00,
2013-07-16 05:41:00,62.6,61.2,30.34,East,83,0.0,0.0,95,0.00,,---,0.01,0.00,VWS V14.01,2013-07-16 09:41:00,
2013-07-16 05:46:00,62.5,61.0,30.34,East,83,0.0,0.0,95,0.00,,---,0.01,0.00,VWS V14.01,2013-07-16 09:46:00,
2013-07-16 05:51:00,62.5,61.0,30.34,East,83,0.0,0.0,95,0.00,,---,0.01,0.00,VWS V14.01,2013-07-16 09:51:00,
2013-07-16 05:56:00,62.5,61.0,30.34,East,83,0.0,0.0,95,0.00,,---,0.01,0.00,VWS V14.01,2013-07-16 09:56:00,
2013-07-16 06:00:00,62.4,61.0,30.34,East,83,0.0,0.0,95,0.00,,---,0.01,0.00,VWS V14.01,2013-07-16 10:00:00,
2013-07-16 06:02:00,62.4,61.0,30.34,East,83,0.0,0.0,95,0.00,,---,0.01,0.00,VWS V14.01,2013-07-16 10:02:00,
2013-07-16 06:07:00,62.3,60.8,30.34,East,83,0.0,0.0,95,0.00,,---,0.01,0.00,VWS V14.01,2013-07-16 10:07:00,
2013-07-16 06:12:00,62.2,60.8,30.34,East,83,0.0,0.0,95,0.00,,---,0.01,0.00,VWS V14.01,2013-07-16 10:12:00,
2013-07-16 06:17:00,62.2,60.8,30.34,East,83,0.0,0.0,95,0.00,,---,0.01,0.00,VWS V14.01,2013-07-16 10:17:00,
2013-07-16 06:22:00,62.1,60.7,30.34,East,83,0.0,0.0,95,0.00,,---,0.01,0.00,VWS V14.01,2013-07-16 10:22:00,
2013-07-16 06:27:00,62.0,60.6,30.34,East,83,0.0,0.0,95,0.00,,---,0.01,5.00,VWS V14.01,2013-07-16 10:27:00,
2013-07-16 06:30:00,61.9,60.5,30.34,ESE,111,0.0,0.0,95,0.00,,---,0.01,7.00,VWS V14.01,2013-07-16 10:30:00,
2013-07-16 06:32:00,61.9,60.5,30.34,ESE,111,0.0,0.0,95,0.00,,---,0.01,5.00,VWS V14.01,2013-07-16 10:32:00,
2013-07-16 06:37:00,61.8,60.4,30.34,ESE,111,0.0,0.0,95,0.00,,---,0.01,9.00,VWS V14.01,2013-07-16 10:37:00,
2013-07-16 06:42:00,61.7,60.3,30.34,ESE,111,0.0,0.0,95,0.00,,---,0.01,11.00,VWS V14.01,2013-07-16 10:42:00,
2013-07-16 06:47:00,61.6,60.2,30.35,ESE,111,0.0,0.0,95,0.00,,---,0.01,16.00,VWS V14.01,2013-07-16 10:47:00,
2013-07-16 06:52:00,61.5,60.1,30.35,WNW,287,0.0,0.0,95,0.00,,---,0.01,16.00,VWS V14.01,2013-07-16 10:52:00,
2013-07-16 06:57:00,61.4,60.0,30.35,WNW,287,0.0,0.0,95,0.00,,---,0.01,18.00,VWS V14.01,2013-07-16 10:57:00,
2013-07-16 07:00:00,61.4,60.0,30.35,WNW,287,0.0,0.0,95,0.00,,---,0.01,23.00,VWS V14.01,2013-07-16 11:00:00,
2013-07-16 07:03:00,61.4,60.0,30.35,WNW,287,0.0,0.0,95,0.00,,---,0.01,21.00,VWS V14.01,2013-07-16 11:03:00,
2013-07-16 07:08:00,61.3,59.9,30.35,West,279,0.0,0.0,95,0.00,,---,0.01,23.00,VWS V14.01,2013-07-16 11:08:00,
2013-07-16 07:13:00,61.3,59.9,30.35,West,279,0.0,0.0,95,0.00,,---,0.01,19.00,VWS V14.01,2013-07-16 11:13:00,
2013-07-16 07:18:00,61.3,59.9,30.35,West,279,0.0,0.0,95,0.00,,---,0.01,18.00,VWS V14.01,2013-07-16 11:18:00,
2013-07-16 07:23:00,61.3,59.9,30.35,West,279,0.0,0.0,95,0.00,,---,0.01,19.00,VWS V14.01,2013-07-16 11:23:00,
2013-07-16 07:28:00,61.3,60.2,30.35,West,279,0.0,0.0,96,0.00,,---,0.01,19.00,VWS V14.01,2013-07-16 11:28:00,
2013-07-16 07:30:00,61.3,60.2,30.36,West,279,0.0,0.0,96,0.00,,---,0.01,19.00,VWS V14.01,2013-07-16 11:30:00,
2013-07-16 07:33:00,61.3,60.2,30.36,West,279,0.0,0.0,96,0.00,,---,0.01,19.00,VWS V14.01,2013-07-16 11:33:00,
2013-07-16 07:38:00,61.4,60.2,30.36,West,279,0.0,0.0,96,0.00,,---,0.01,21.00,VWS V14.01,2013-07-16 11:38:00,
2013-07-16 07:43:00,61.4,60.2,30.36,West,279,0.0,0.0,96,0.00,,---,0.01,23.00,VWS V14.01,2013-07-16 11:43:00,
2013-07-16 07:48:00,61.6,60.5,30.36,West,279,0.0,0.0,96,0.00,,---,0.01,23.00,VWS V14.01,2013-07-16 11:48:00,
2013-07-16 07:53:00,61.7,60.5,30.36,West,279,0.0,0.0,96,0.00,,---,0.01,25.00,VWS V14.01,2013-07-16 11:53:00,
2013-07-16 07:58:00,61.8,60.7,30.36,West,279,0.0,0.0,96,0.00,,---,0.01,25.00,VWS V14.01,2013-07-16 11:58:00,
2013-07-16 08:00:00,61.9,60.8,30.36,West,279,0.0,0.0,96,0.00,,---,0.01,26.00,VWS V14.01,2013-07-16 12:00:00,
2013-07-16 08:04:00,61.9,60.8,30.36,West,279,0.0,0.0,96,0.00,,---,0.01,26.00,VWS V14.01,2013-07-16 12:04:00,
2013-07-16 08:09:00,62.0,61.1,30.36,West,279,0.0,0.0,97,0.00,,---,0.01,28.00,VWS V14.01,2013-07-16 12:09:00,
2013-07-16 08:14:00,62.2,61.3,30.36,West,279,0.0,0.0,97,0.00,,---,0.01,28.00,VWS V14.01,2013-07-16 12:14:00,
2013-07-16 08:19:00,62.4,61.5,30.36,West,279,0.0,0.0,97,0.00,,---,0.01,28.00,VWS V14.01,2013-07-16 12:19:00,
2013-07-16 08:24:00,62.7,61.8,30.36,West,279,0.0,0.0,97,0.00,,---,0.01,30.00,VWS V14.01,2013-07-16 12:24:00,
2013-07-16 08:29:00,63.0,62.1,30.36,West,279,0.0,0.0,97,0.00,,---,0.01,32.00,VWS V14.01,2013-07-16 12:29:00,
2013-07-16 08:30:00,63.2,62.3,30.37,West,279,0.0,0.0,97,0.00,,---,0.01,32.00,VWS V14.01,2013-07-16 12:30:00,
2013-07-16 08:34:00,63.2,62.3,30.37,West,279,0.0,0.0,97,0.00,,---,0.01,32.00,VWS V14.01,2013-07-16 12:34:00,
2013-07-16 08:39:00,63.4,62.5,30.37,West,279,0.0,0.0,97,0.00,,---,0.01,33.00,VWS V14.01,2013-07-16 12:39:00,
2013-07-16 08:44:00,63.7,62.8,30.37,West,279,0.0,0.0,97,0.00,,---,0.01,33.00,VWS V14.01,2013-07-16 12:44:00,
2013-07-16 08:49:00,63.9,63.0,30.37,West,279,0.0,0.0,97,0.00,,---,0.01,37.00,VWS V14.01,2013-07-16 12:49:00,
2013-07-16 08:54:00,64.1,63.5,30.37,West,279,0.0,0.0,98,0.00,,---,0.01,35.00,VWS V14.01,2013-07-16 12:54:00,
2013-07-16 09:00:00,64.3,63.7,30.37,West,279,0.0,0.0,98,0.00,,---,0.01,37.00,VWS V14.01,2013-07-16 13:00:00,
2013-07-16 09:05:00,64.5,63.9,30.37,NE,48,0.0,0.0,98,0.00,,---,0.01,47.00,VWS V14.01,2013-07-16 13:05:00,
2013-07-16 09:10:00,64.7,64.1,30.37,NE,48,0.0,0.0,98,0.00,,---,0.01,39.00,VWS V14.01,2013-07-16 13:10:00,
2013-07-16 09:15:00,64.9,64.3,30.37,NE,48,0.0,0.0,98,0.00,,---,0.01,315.00,VWS V14.01,2013-07-16 13:15:00,
2013-07-16 09:20:00,65.2,64.6,30.37,NE,48,0.0,0.0,98,0.00,,---,0.01,107.00,VWS V14.01,2013-07-16 13:20:00,
2013-07-16 09:25:00,65.6,65.0,30.37,NE,48,0.0,0.0,98,0.00,,---,0.01,441.00,VWS V14.01,2013-07-16 13:25:00,
2013-07-16 09:30:00,66.0,65.4,30.37,NE,48,0.0,0.0,98,0.00,,---,0.01,69.00,VWS V14.01,2013-07-16 13:30:00,
2013-07-16 09:35:00,66.6,66.0,30.37,NE,48,0.0,0.0,98,0.00,,---,0.01,508.00,VWS V14.01,2013-07-16 13:35:00,
2013-07-16 09:40:00,67.0,66.4,30.37,NE,48,0.0,0.0,98,0.00,,---,0.01,492.00,VWS V14.01,2013-07-16 13:40:00,
2013-07-16 09:45:00,67.4,66.8,30.37,NE,48,0.0,0.0,98,0.00,,---,0.01,548.00,VWS V14.01,2013-07-16 13:45:00,
2013-07-16 09:51:00,67.9,67.3,30.37,NE,48,0.0,0.0,98,0.00,,---,0.01,580.00,VWS V14.01,2013-07-16 13:51:00,
2013-07-16 09:56:00,68.5,67.9,30.37,NE,48,0.0,0.0,98,0.00,,---,0.01,601.00,VWS V14.01,2013-07-16 13:56:00,
2013-07-16 10:00:00,70.4,68.6,30.36,NE,48,0.0,0.0,94,0.00,,---,0.01,629.00,VWS V14.01,2013-07-16 14:00:00,
2013-07-16 10:01:00,69.7,68.8,30.37,NE,48,0.0,0.0,97,0.00,,---,0.01,619.00,VWS V14.01,2013-07-16 14:01:00,
2013-07-16 10:06:00,71.2,68.8,30.36,NE,48,0.0,0.0,92,0.00,,---,0.01,636.00,VWS V14.01,2013-07-16 14:06:00,
2013-07-16 10:11:00,72.6,68.5,30.36,NE,48,0.0,0.0,87,0.00,,---,0.01,652.00,VWS V14.01,2013-07-16 14:11:00,
2013-07-16 10:16:00,73.9,68.4,30.36,NE,48,0.0,0.0,83,0.00,,---,0.01,666.00,VWS V14.01,2013-07-16 14:16:00,
2013-07-16 10:21:00,75.5,68.9,30.36,NE,48,0.0,0.0,80,0.00,,---,0.01,682.00,VWS V14.01,2013-07-16 14:21:00,
2013-07-16 10:26:00,76.8,69.1,30.36,NE,48,0.0,0.0,77,0.00,,---,0.01,694.00,VWS V14.01,2013-07-16 14:26:00,
2013-07-16 10:30:00,78.4,69.8,30.35,NE,48,0.0,0.0,75,0.00,,---,0.01,714.00,VWS V14.01,2013-07-16 14:30:00,
2013-07-16 10:31:00,78.1,69.5,30.35,NE,48,0.0,0.0,75,0.00,,---,0.01,705.00,VWS V14.01,2013-07-16 14:31:00,
2013-07-16 10:36:00,78.8,70.2,30.35,NE,48,0.0,0.0,75,0.00,,---,0.01,717.00,VWS V14.01,2013-07-16 14:36:00,
2013-07-16 10:41:00,79.4,70.0,30.35,NE,48,0.0,0.0,73,0.00,,---,0.01,731.00,VWS V14.01,2013-07-16 14:41:00,
2013-07-16 10:47:00,79.4,70.0,30.35,SSW,211,0.0,0.0,73,0.00,,---,0.01,747.00,VWS V14.01,2013-07-16 14:47:00,
2013-07-16 10:52:00,79.5,69.7,30.35,WNW,299,0.0,0.0,72,0.00,,---,0.01,759.00,VWS V14.01,2013-07-16 14:52:00,
2013-07-16 10:57:00,79.6,69.8,30.35,WNW,299,0.0,0.0,72,0.00,,---,0.01,772.00,VWS V14.01,2013-07-16 14:57:00,
2013-07-16 11:00:00,80.0,69.8,30.35,WNW,300,0.0,0.0,71,0.00,,---,0.01,786.00,VWS V14.01,2013-07-16 15:00:00,
2013-07-16 11:02:00,79.9,69.7,30.35,WNW,300,0.0,0.0,71,0.00,,---,0.01,784.00,VWS V14.01,2013-07-16 15:02:00,
2013-07-16 11:07:00,80.1,70.3,30.35,WNW,300,0.0,0.0,72,0.00,,---,0.01,795.00,VWS V14.01,2013-07-16 15:07:00,
2013-07-16 11:12:00,80.2,69.9,30.35,WNW,297,0.0,0.0,71,0.00,,---,0.01,805.00,VWS V14.01,2013-07-16 15:12:00,
2013-07-16 11:17:00,80.1,69.9,30.35,WNW,297,0.0,0.0,71,0.00,,---,0.01,812.00,VWS V14.01,2013-07-16 15:17:00,
2013-07-16 11:22:00,80.2,69.9,30.35,WNW,297,0.0,0.0,71,0.00,,---,0.01,826.00,VWS V14.01,2013-07-16 15:22:00,
2013-07-16 11:28:00,80.5,69.8,30.35,WNW,297,0.0,0.0,70,0.00,,---,0.01,838.00,VWS V14.01,2013-07-16 15:28:00,
2013-07-16 11:30:00,81.0,70.7,30.34,WNW,297,0.0,0.0,71,0.00,,---,0.01,849.00,VWS V14.01,2013-07-16 15:30:00,
2013-07-16 11:33:00,80.9,70.6,30.34,WNW,297,0.0,0.0,71,0.00,,---,0.01,846.00,VWS V14.01,2013-07-16 15:33:00,
2013-07-16 11:38:00,81.7,71.0,30.34,WNW,297,0.0,0.0,70,0.00,,---,0.01,854.00,VWS V14.01,2013-07-16 15:38:00,
2013-07-16 11:43:00,82.1,71.3,30.35,WNW,297,0.0,0.0,70,0.00,,---,0.01,868.00,VWS V14.01,2013-07-16 15:43:00,
2013-07-16 11:48:00,82.6,71.8,30.34,WNW,297,0.0,0.0,70,0.00,,---,0.01,870.00,VWS V14.01,2013-07-16 15:48:00,
2013-07-16 11:53:00,83.0,71.8,30.34,WNW,297,0.0,0.0,69,0.00,,---,0.01,896.00,VWS V14.01,2013-07-16 15:53:00,
2013-07-16 11:58:00,82.6,71.4,30.34,WNW,297,0.0,0.0,69,0.00,,---,0.01,893.00,VWS V14.01,2013-07-16 15:58:00,
2013-07-16 12:00:00,82.3,71.1,30.34,WNW,297,0.0,0.0,69,0.00,,---,0.01,902.00,VWS V14.01,2013-07-16 16:00:00,
2013-07-16 12:03:00,82.2,70.6,30.34,WNW,297,0.0,0.0,68,0.00,,---,0.01,902.00,VWS V14.01,2013-07-16 16:03:00,
2013-07-16 12:08:00,82.4,71.2,30.34,WNW,297,0.0,0.0,69,0.00,,---,0.01,896.00,VWS V14.01,2013-07-16 16:08:00,
2013-07-16 12:14:00,82.6,71.4,30.34,WNW,297,0.0,0.0,69,0.00,,---,0.01,916.00,VWS V14.01,2013-07-16 16:14:00,
2013-07-16 12:19:00,82.8,71.6,30.34,WNW,297,0.0,0.0,69,0.00,,---,0.01,925.00,VWS V14.01,2013-07-16 16:19:00,
2013-07-16 12:24:00,83.0,71.4,30.34,WNW,301,0.0,0.0,68,0.00,,---,0.01,921.00,VWS V14.01,2013-07-16 16:24:00,
2013-07-16 12:29:00,82.9,71.7,30.34,NW,305,0.0,0.0,69,0.00,,---,0.01,965.00,VWS V14.01,2013-07-16 16:29:00,
2013-07-16 12:30:00,82.8,71.2,30.34,NW,305,0.0,0.0,68,0.00,,---,0.01,963.00,VWS V14.01,2013-07-16 16:30:00,
2013-07-16 12:34:00,82.7,71.1,30.34,NW,305,0.0,0.0,68,0.00,,---,0.01,877.00,VWS V14.01,2013-07-16 16:34:00,
2013-07-16 12:39:00,82.9,71.3,30.34,NW,305,0.0,0.0,68,0.00,,---,0.01,969.00,VWS V14.01,2013-07-16 16:39:00,
2013-07-16 12:44:00,83.6,71.5,30.34,WSW,246,0.0,0.0,67,0.00,,---,0.01,984.00,VWS V14.01,2013-07-16 16:44:00,
2013-07-16 12:49:00,83.7,71.1,30.33,WSW,246,0.0,0.0,66,0.00,,---,0.01,967.00,VWS V14.01,2013-07-16 16:49:00,
2013-07-16 12:54:00,84.1,71.5,30.33,WSW,246,0.0,0.0,66,0.00,,---,0.01,970.00,VWS V14.01,2013-07-16 16:54:00,
2013-07-16 12:59:00,84.1,72.0,30.33,WSW,246,0.0,0.0,67,0.00,,---,0.01,932.00,VWS V14.01,2013-07-16 16:59:00,
2013-07-16 13:00:00,84.1,71.1,30.33,WSW,246,0.0,0.0,65,0.00,,---,0.01,995.00,VWS V14.01,2013-07-16 17:00:00,
2013-07-16 13:04:00,84.0,71.9,30.33,WSW,246,0.0,0.0,67,0.00,,---,0.01,1062.00,VWS V14.01,2013-07-16 17:04:00,
2013-07-16 13:10:00,84.6,72.0,30.32,WSW,244,0.0,0.0,66,0.00,,---,0.01,976.00,VWS V14.01,2013-07-16 17:10:00,
2013-07-16 13:15:00,84.4,71.8,30.33,WNW,302,0.0,0.0,66,0.00,,---,0.01,1030.00,VWS V14.01,2013-07-16 17:15:00,
2013-07-16 13:20:00,84.3,73.0,30.33,WNW,302,0.0,0.0,69,0.00,,---,0.01,1000.00,VWS V14.01,2013-07-16 17:20:00,
2013-07-16 13:25:00,84.6,70.6,30.33,WNW,302,0.0,0.0,63,0.00,,---,0.01,1042.00,VWS V14.01,2013-07-16 17:25:00,
2013-07-16 13:30:00,85.6,71.1,30.32,WNW,302,0.0,0.0,62,0.00,,---,0.01,1046.00,VWS V14.01,2013-07-16 17:30:00,
2013-07-16 13:35:00,86.0,71.5,30.32,WNW,302,0.0,0.0,62,0.00,,---,0.01,1032.00,VWS V14.01,2013-07-16 17:35:00,
2013-07-16 13:40:00,86.4,71.4,30.32,WNW,302,0.0,0.0,61,0.00,,---,0.01,1062.00,VWS V14.01,2013-07-16 17:40:00,
2013-07-16 13:45:00,86.4,71.4,30.32,NW,324,0.0,0.0,61,0.00,,---,0.01,976.00,VWS V14.01,2013-07-16 17:45:00,
2013-07-16 13:50:00,87.1,71.0,30.32,NNW,335,0.0,0.0,59,0.00,,---,0.01,1000.00,VWS V14.01,2013-07-16 17:50:00,
2013-07-16 13:55:00,87.4,71.8,30.32,SW,220,0.0,0.0,60,0.00,,---,0.01,819.00,VWS V14.01,2013-07-16 17:55:00,
2013-07-16 14:00:00,86.4,70.9,30.32,SW,220,0.0,0.0,60,0.01,,---,0.02,1114.00,VWS V14.01,2013-07-16 18:00:00,
2013-07-16 14:05:00,86.2,70.2,30.31,SW,220,0.0,0.0,59,0.01,,---,0.02,188.00,VWS V14.01,2013-07-16 18:05:00,
2013-07-16 14:10:00,86.4,71.4,30.31,SW,220,0.0,0.0,61,0.01,,---,0.02,1058.00,VWS V14.01,2013-07-16 18:10:00,
2013-07-16 14:15:00,86.5,71.0,30.31,WNW,284,0.0,0.0,60,0.01,,---,0.02,1002.00,VWS V14.01,2013-07-16 18:15:00,
2013-07-16 14:21:00,87.0,71.4,30.30,WNW,284,0.0,0.0,60,0.01,,---,0.02,1037.00,VWS V14.01,2013-07-16 18:21:00,
2013-07-16 14:26:00,86.8,72.2,30.30,NNW,344,0.0,0.0,62,0.01,,---,0.02,230.00,VWS V14.01,2013-07-16 18:26:00,
2013-07-16 14:30:00,86.5,71.0,30.30,NNW,345,0.0,0.0,60,0.01,,---,0.02,236.00,VWS V14.01,2013-07-16 18:30:00,
2013-07-16 14:31:00,86.6,71.6,30.30,NNW,344,0.0,0.0,61,0.01,,---,0.02,171.00,VWS V14.01,2013-07-16 18:31:00,
2013-07-16 14:36:00,85.8,71.8,30.30,NNW,345,0.0,0.0,63,0.01,,---,0.02,236.00,VWS V14.01,2013-07-16 18:36:00,
2013-07-16 14:41:00,85.2,72.6,30.30,NNW,345,0.0,0.0,66,0.01,,---,0.02,1063.00,VWS V14.01,2013-07-16 18:41:00,
2013-07-16 14:46:00,85.1,71.1,30.30,NNW,345,0.0,0.0,63,0.01,,---,0.02,1023.00,VWS V14.01,2013-07-16 18:46:00,
2013-07-16 14:51:00,86.1,71.1,30.30,NNW,345,0.0,0.0,61,0.01,,---,0.02,1030.00,VWS V14.01,2013-07-16 18:51:00,
2013-07-16 14:56:00,87.4,70.8,30.30,NNW,345,0.0,0.0,58,0.01,,---,0.02,1034.00,VWS V14.01,2013-07-16 18:56:00,
2013-07-16 15:00:00,87.7,71.1,30.29,North,355,0.0,0.0,58,0.01,,---,0.02,642.00,VWS V14.01,2013-07-16 19:00:00,
2013-07-16 15:01:00,87.9,72.3,30.30,North,355,0.0,0.0,60,0.01,,---,0.02,225.00,VWS V14.01,2013-07-16 19:01:00,
2013-07-16 15:06:00,86.7,71.7,30.29,North,355,0.0,0.0,61,0.00,,---,0.02,963.00,VWS V14.01,2013-07-16 19:06:00,
2013-07-16 15:11:00,86.6,70.6,30.29,WNW,300,0.0,0.0,59,0.00,,---,0.02,928.00,VWS V14.01,2013-07-16 19:11:00,
2013-07-16 15:17:00,87.4,66.5,30.29,WNW,300,0.0,0.0,50,0.00,,---,0.02,979.00,VWS V14.01,2013-07-16 19:17:00,
2013-07-16 15:22:00,87.5,70.4,30.29,North,349,0.0,0.0,57,0.00,,---,0.02,877.00,VWS V14.01,2013-07-16 19:22:00,
2013-07-16 15:27:00,86.1,70.6,30.29,North,355,0.0,0.0,60,0.00,,---,0.02,156.00,VWS V14.01,2013-07-16 19:27:00,
2013-07-16 15:30:00,85.0,71.0,30.29,NNE,22,0.0,0.0,63,0.00,,---,0.02,905.00,VWS V14.01,2013-07-16 19:30:00,
2013-07-16 15:32:00,85.2,71.7,30.29,NNE,22,0.0,0.0,64,0.00,,---,0.02,907.00,VWS V14.01,2013-07-16 19:32:00,
2013-07-16 15:37:00,84.8,70.3,30.29,NNE,22,0.0,0.0,62,0.00,,---,0.02,118.00,VWS V14.01,2013-07-16 19:37:00,
2013-07-16 15:42:00,85.1,71.6,30.29,NNE,22,0.0,0.0,64,0.00,,---,0.02,870.00,VWS V14.01,2013-07-16 19:42:00,
2013-07-16 15:47:00,85.8,69.8,30.29,NW,317,0.0,0.0,59,0.00,,---,0.02,872.00,VWS V14.01,2013-07-16 19:47:00,
2013-07-16 15:52:00,85.8,69.8,30.29,North,355,0.0,0.0,59,0.00,,---,0.02,882.00,VWS V14.01,2013-07-16 19:52:00,
2013-07-16 15:57:00,85.9,70.9,30.29,North,355,0.0,0.0,61,0.00,,---,0.02,109.00,VWS V14.01,2013-07-16 19:57:00,
2013-07-16 16:00:00,85.7,71.2,30.29,North,355,0.0,0.0,62,0.00,,---,0.02,809.00,VWS V14.01,2013-07-16 20:00:00,
2013-07-16 16:02:00,85.8,71.3,30.29,North,355,0.0,0.0,62,0.00,,---,0.02,809.00,VWS V14.01,2013-07-16 20:02:00,
2013-07-16 16:07:00,85.7,70.2,30.28,North,355,0.0,0.0,60,0.00,,---,0.02,76.00,VWS V14.01,2013-07-16 20:07:00,
2013-07-16 16:12:00,85.7,70.2,30.28,North,355,0.0,0.0,60,0.00,,---,0.02,773.00,VWS V14.01,2013-07-16 20:12:00,
2013-07-16 16:17:00,85.9,69.9,30.28,North,355,0.0,0.0,59,0.00,,---,0.02,763.00,VWS V14.01,2013-07-16 20:17:00,
2013-07-16 16:22:00,86.5,68.4,30.27,WNW,290,0.0,0.0,55,0.00,,---,0.02,747.00,VWS V14.01,2013-07-16 20:22:00,
2013-07-16 16:27:00,87.1,69.0,30.27,WNW,298,0.0,0.0,55,0.00,,---,0.02,737.00,VWS V14.01,2013-07-16 20:27:00,
2013-07-16 16:30:00,87.6,69.4,30.27,NW,323,0.0,0.0,55,0.00,,---,0.02,722.00,VWS V14.01,2013-07-16 20:30:00,
2013-07-16 16:32:00,87.6,70.0,30.27,NW,323,0.0,0.0,56,0.00,,---,0.02,726.00,VWS V14.01,2013-07-16 20:32:00,
2013-07-16 16:38:00,87.4,69.3,30.27,NNW,331,0.0,0.0,55,0.00,,---,0.02,710.00,VWS V14.01,2013-07-16 20:38:00,
2013-07-16 16:43:00,87.2,69.1,30.27,NNW,336,0.0,0.0,55,0.00,,---,0.02,700.00,VWS V14.01,2013-07-16 20:43:00,
2013-07-16 16:48:00,87.6,69.4,30.27,NNW,338,0.0,0.0,55,0.00,,---,0.02,686.00,VWS V14.01,2013-07-16 20:48:00,
2013-07-16 16:53:00,87.4,69.8,30.27,NNW,338,0.0,0.0,56,0.00,,---,0.02,679.00,VWS V14.01,2013-07-16 20:53:00,
2013-07-16 16:58:00,87.2,68.5,30.28,NE,49,0.0,0.0,54,0.00,,---,0.02,664.00,VWS V14.01,2013-07-16 20:58:00,
2013-07-16 17:00:00,86.9,68.3,30.28,NE,46,0.0,0.0,54,0.00,,---,0.02,663.00,VWS V14.01,2013-07-16 21:00:00,
2013-07-16 17:03:00,86.9,69.3,30.28,NE,46,0.0,0.0,56,0.00,,---,0.02,663.00,VWS V14.01,2013-07-16 21:03:00,
2013-07-16 17:08:00,87.7,70.6,30.28,NE,46,0.0,0.0,57,0.00,,---,0.02,656.00,VWS V14.01,2013-07-16 21:08:00,
2013-07-16 17:13:00,87.0,69.9,30.28,NE,46,0.0,0.0,57,0.00,,---,0.02,663.00,VWS V14.01,2013-07-16 21:13:00,
2013-07-16 17:18:00,86.5,69.0,30.28,NE,46,0.0,0.0,56,0.00,,---,0.02,643.00,VWS V14.01,2013-07-16 21:18:00,
2013-07-16 17:23:00,86.2,69.7,30.27,North,355,0.0,0.0,58,0.00,,---,0.02,615.00,VWS V14.01,2013-07-16 21:23:00,
2013-07-16 17:28:00,85.4,69.4,30.27,North,355,0.0,0.0,59,0.00,,---,0.02,415.00,VWS V14.01,2013-07-16 21:28:00,
2013-07-16 17:30:00,85.4,69.4,30.27,North,355,0.0,0.0,59,0.00,,---,0.02,134.00,VWS V14.01,2013-07-16 21:30:00,
2013-07-16 17:34:00,85.5,69.6,30.27,North,355,0.0,0.0,59,0.00,,---,0.02,114.00,VWS V14.01,2013-07-16 21:34:00,
2013-07-16 17:39:00,85.7,69.2,30.28,North,355,0.0,0.0,58,0.00,,---,0.02,102.00,VWS V14.01,2013-07-16 21:39:00,
2013-07-16 17:44:00,85.8,69.3,30.28,North,355,0.0,0.0,58,0.00,,---,0.02,84.00,VWS V14.01,2013-07-16 21:44:00,
2013-07-16 17:49:00,86.0,69.5,30.28,North,355,0.0,0.0,58,0.00,,---,0.02,86.00,VWS V14.01,2013-07-16 21:49:00,
2013-07-16 17:54:00,85.8,68.8,30.28,North,355,0.0,0.0,57,0.00,,---,0.02,72.00,VWS V14.01,2013-07-16 21:54:00,
2013-07-16 17:59:00,85.8,68.8,30.27,North,355,0.0,0.0,57,0.00,,---,0.02,65.00,VWS V14.01,2013-07-16 21:59:00,
2013-07-16 18:00:00,85.7,68.7,30.27,North,355,0.0,0.0,57,0.00,,---,0.02,111.00,VWS V14.01,2013-07-16 22:00:00,
2013-07-16 18:04:00,85.6,69.1,30.27,North,355,0.0,0.0,58,0.00,,---,0.02,111.00,VWS V14.01,2013-07-16 22:04:00,
2013-07-16 18:09:00,85.4,69.0,30.27,North,355,0.0,0.0,58,0.00,,---,0.02,72.00,VWS V14.01,2013-07-16 22:09:00,
2013-07-16 18:14:00,85.2,68.8,30.27,North,355,0.0,0.0,58,0.00,,---,0.02,53.00,VWS V14.01,2013-07-16 22:14:00,
2013-07-16 18:19:00,85.0,69.1,30.27,North,355,0.0,0.0,59,0.00,,---,0.02,56.00,VWS V14.01,2013-07-16 22:19:00,
2013-07-16 18:24:00,84.8,68.9,30.27,North,355,0.0,0.0,59,0.00,,---,0.02,47.00,VWS V14.01,2013-07-16 22:24:00,
2013-07-16 18:29:00,84.6,68.2,30.26,North,355,0.0,0.0,58,0.00,,---,0.02,44.00,VWS V14.01,2013-07-16 22:29:00,
2013-07-16 18:30:00,84.4,68.0,30.26,North,355,0.0,0.0,58,0.00,,---,0.02,42.00,VWS V14.01,2013-07-16 22:30:00,
2013-07-16 18:34:00,84.4,68.0,30.26,North,355,0.0,0.0,58,0.00,,---,0.02,42.00,VWS V14.01,2013-07-16 22:34:00,
2013-07-16 18:39:00,84.2,67.8,30.26,North,355,0.0,0.0,58,0.00,,---,0.02,42.00,VWS V14.01,2013-07-16 22:39:00,
2013-07-16 18:44:00,84.0,68.1,30.26,North,355,0.0,0.0,59,0.00,,---,0.02,40.00,VWS V14.01,2013-07-16 22:44:00,
2013-07-16 18:49:00,83.8,68.4,30.26,North,355,0.0,0.0,60,0.00,,---,0.02,47.00,VWS V14.01,2013-07-16 22:49:00,
2013-07-16 18:55:00,83.7,68.3,30.27,North,355,0.0,0.0,60,0.00,,---,0.02,63.00,VWS V14.01,2013-07-16 22:55:00,
2013-07-16 19:00:00,83.5,68.7,30.27,North,355,0.0,0.0,61,0.00,,---,0.02,81.00,VWS V14.01,2013-07-16 23:00:00,
2013-07-16 19:05:00,83.3,68.5,30.27,North,355,0.0,0.0,61,0.00,,---,0.02,91.00,VWS V14.01,2013-07-16 23:05:00,
2013-07-16 19:10:00,83.2,68.8,30.28,North,355,0.0,0.0,62,0.00,,---,0.02,102.00,VWS V14.01,2013-07-16 23:10:00,
2013-07-16 19:15:00,83.1,68.3,30.28,North,355,0.0,0.0,61,0.00,,---,0.02,105.00,VWS V14.01,2013-07-16 23:15:00,
2013-07-16 19:20:00,82.9,68.6,30.28,North,355,0.0,0.0,62,0.00,,---,0.02,81.00,VWS V14.01,2013-07-16 23:20:00,
2013-07-16 19:25:00,82.7,68.4,30.28,North,355,0.0,0.0,62,0.00,,---,0.02,67.00,VWS V14.01,2013-07-16 23:25:00,
2013-07-16 19:30:00,82.5,68.6,30.28,North,355,0.0,0.0,63,0.00,,---,0.02,47.00,VWS V14.01,2013-07-16 23:30:00,
2013-07-16 19:31:00,82.6,68.7,30.28,North,355,0.0,0.0,63,0.00,,---,0.02,53.00,VWS V14.01,2013-07-16 23:31:00,
2013-07-16 19:36:00,82.4,68.6,30.28,North,355,0.0,0.0,63,0.00,,---,0.02,46.00,VWS V14.01,2013-07-16 23:36:00,
2013-07-16 19:41:00,82.2,68.8,30.27,North,355,0.0,0.0,64,0.00,,---,0.02,37.00,VWS V14.01,2013-07-16 23:41:00,
2013-07-16 19:46:00,82.0,69.1,30.28,North,355,0.0,0.0,65,0.00,,---,0.02,30.00,VWS V14.01,2013-07-16 23:46:00,
2013-07-16 19:51:00,81.6,69.6,30.28,North,355,0.0,0.0,67,0.00,,---,0.02,25.00,VWS V14.01,2013-07-16 23:51:00,
2013-07-16 19:56:00,81.4,70.3,30.28,North,355,0.0,0.0,69,0.00,,---,0.02,21.00,VWS V14.01,2013-07-16 23:56:00,
2013-07-16 20:00:00,81.1,71.2,30.27,North,355,0.0,0.0,72,0.00,,---,0.02,18.00,VWS V14.01,2013-07-17 00:00:00,
2013-07-16 20:01:00,81.2,70.9,30.27,North,355,0.0,0.0,71,0.00,,---,0.02,19.00,VWS V14.01,2013-07-17 00:01:00,
2013-07-16 20:06:00,81.0,71.5,30.27,North,355,0.0,0.0,73,0.00,,---,0.02,16.00,VWS V14.01,2013-07-17 00:06:00,
2013-07-16 20:11:00,80.7,71.7,30.27,North,355,0.0,0.0,74,0.00,,---,0.02,14.00,VWS V14.01,2013-07-17 00:11:00,
2013-07-16 20:16:00,80.3,71.7,30.28,North,355,0.0,0.0,75,0.00,,---,0.02,12.00,VWS V14.01,2013-07-17 00:16:00,
2013-07-16 20:21:00,80.0,71.8,30.28,North,355,0.0,0.0,76,0.00,,---,0.02,11.00,VWS V14.01,2013-07-17 00:21:00,
2013-07-16 20:26:00,79.7,71.5,30.29,North,355,0.0,0.0,76,0.00,,---,0.02,7.00,VWS V14.01,2013-07-17 00:26:00,
2013-07-16 20:30:00,79.4,71.6,30.29,North,355,0.0,0.0,77,0.00,,---,0.02,5.00,VWS V14.01,2013-07-17 00:30:00,
2013-07-16 20:31:00,79.5,71.7,30.29,North,355,0.0,0.0,77,0.00,,---,0.02,5.00,VWS V14.01,2013-07-17 00:31:00,
2013-07-16 20:36:00,79.2,71.8,30.29,North,355,0.0,1.0,78,0.00,,---,0.02,0.00,VWS V14.01,2013-07-17 00:36:00,
2013-07-16 20:42:00,78.8,71.7,30.29,North,355,0.0,1.0,79,0.00,,---,0.02,0.00,VWS V14.01,2013-07-17 00:42:00,
2013-07-16 20:47:00,78.6,71.6,30.29,North,355,0.0,1.0,79,0.00,,---,0.02,0.00,VWS V14.01,2013-07-17 00:47:00,
2013-07-16 20:52:00,78.4,71.7,30.29,North,355,0.0,1.0,80,0.00,,---,0.02,0.00,VWS V14.01,2013-07-17 00:52:00,
2013-07-16 20:57:00,78.2,71.5,30.29,North,355,0.0,1.0,80,0.00,,---,0.02,0.00,VWS V14.01,2013-07-17 00:57:00,
2013-07-16 21:00:00,77.9,71.6,30.30,North,355,0.0,1.0,81,0.00,,---,0.02,0.00,VWS V14.01,2013-07-17 01:00:00,
2013-07-16 21:02:00,78.0,71.7,30.30,North,355,0.0,1.0,81,0.00,,---,0.02,0.00,VWS V14.01,2013-07-17 01:02:00,
2013-07-16 21:07:00,77.7,71.4,30.30,North,355,0.0,0.0,81,0.00,,---,0.02,0.00,VWS V14.01,2013-07-17 01:07:00,
2013-07-16 21:12:00,77.3,71.4,30.30,North,355,0.0,0.0,82,0.00,,---,0.02,0.00,VWS V14.01,2013-07-17 01:12:00,
2013-07-16 21:17:00,76.9,71.3,30.30,North,355,0.0,0.0,83,0.00,,---,0.02,0.00,VWS V14.01,2013-07-17 01:17:00,
2013-07-16 21:22:00,76.6,71.1,30.30,North,355,0.0,0.0,83,0.00,,---,0.02,0.00,VWS V14.01,2013-07-17 01:22:00,
2013-07-16 21:27:00,76.2,71.0,30.30,North,355,0.0,0.0,84,0.00,,---,0.02,0.00,VWS V14.01,2013-07-17 01:27:00,
2013-07-16 21:30:00,75.7,70.9,30.31,North,355,0.0,0.0,85,0.00,,---,0.02,0.00,VWS V14.01,2013-07-17 01:30:00,
2013-07-16 21:32:00,75.7,70.9,30.31,North,355,0.0,0.0,85,0.00,,---,0.02,0.00,VWS V14.01,2013-07-17 01:32:00,
2013-07-16 21:37:00,75.4,70.9,30.31,North,355,0.0,0.0,86,0.00,,---,0.02,0.00,VWS V14.01,2013-07-17 01:37:00,
2013-07-16 21:43:00,75.2,70.7,30.31,North,355,0.0,0.0,86,0.00,,---,0.02,0.00,VWS V14.01,2013-07-17 01:43:00,
2013-07-16 21:48:00,75.0,70.5,30.31,North,355,0.0,0.0,86,0.00,,---,0.02,0.00,VWS V14.01,2013-07-17 01:48:00,
2013-07-16 21:53:00,74.7,70.6,30.31,NNE,15,0.0,1.0,87,0.00,,---,0.02,0.00,VWS V14.01,2013-07-17 01:53:00,
2013-07-16 21:58:00,74.4,70.3,30.31,NNE,15,0.0,1.0,87,0.00,,---,0.02,0.00,VWS V14.01,2013-07-17 01:58:00,
2013-07-16 22:00:00,74.1,70.0,30.31,NNE,15,0.0,1.0,87,0.00,,---,0.02,0.00,VWS V14.01,2013-07-17 02:00:00,
2013-07-16 22:03:00,74.2,70.1,30.31,NNE,15,0.0,1.0,87,0.00,,---,0.02,0.00,VWS V14.01,2013-07-17 02:03:00,
2013-07-16 22:08:00,74.0,69.9,30.31,NNE,15,0.0,0.0,87,0.00,,---,0.02,0.00,VWS V14.01,2013-07-17 02:08:00,
2013-07-16 22:13:00,74.0,69.9,30.31,NNE,15,0.0,0.0,87,0.00,,---,0.02,0.00,VWS V14.01,2013-07-17 02:13:00,
2013-07-16 22:18:00,73.9,69.8,30.31,NNE,15,0.0,0.0,87,0.00,,---,0.02,0.00,VWS V14.01,2013-07-17 02:18:00,
2013-07-16 22:23:00,73.9,69.8,30.30,NNE,15,0.0,0.0,87,0.00,,---,0.02,0.00,VWS V14.01,2013-07-17 02:23:00,
2013-07-16 22:28:00,73.9,69.8,30.30,NNE,15,0.0,0.0,87,0.00,,---,0.02,0.00,VWS V14.01,2013-07-17 02:28:00,
2013-07-16 22:30:00,73.9,69.8,30.29,NNE,15,0.0,0.0,87,0.00,,---,0.02,0.00,VWS V14.01,2013-07-17 02:30:00,
2013-07-16 22:33:00,73.9,69.8,30.29,NNE,15,0.0,0.0,87,0.00,,---,0.02,0.00,VWS V14.01,2013-07-17 02:33:00,
2013-07-16 22:38:00,73.8,69.7,30.29,NNE,15,0.0,0.0,87,0.00,,---,0.02,0.00,VWS V14.01,2013-07-17 02:38:00,
2013-07-16 22:43:00,73.7,69.6,30.29,NNE,15,0.0,0.0,87,0.00,,---,0.02,0.00,VWS V14.01,2013-07-17 02:43:00,
2013-07-16 22:49:00,73.6,69.5,30.29,NNE,15,0.0,0.0,87,0.00,,---,0.02,0.00,VWS V14.01,2013-07-17 02:49:00,
2013-07-16 22:54:00,73.4,69.6,30.29,NNE,15,0.0,0.0,88,0.00,,---,0.02,0.00,VWS V14.01,2013-07-17 02:54:00,
2013-07-16 22:59:00,73.3,69.5,30.29,NNE,15,0.0,0.0,88,0.00,,---,0.02,0.00,VWS V14.01,2013-07-17 02:59:00,
2013-07-16 23:00:00,73.0,69.2,30.29,NNE,15,0.0,0.0,88,0.00,,---,0.02,0.00,VWS V14.01,2013-07-17 03:00:00,
2013-07-16 23:04:00,73.0,69.2,30.29,NNE,15,0.0,0.0,88,0.00,,---,0.02,0.00,VWS V14.01,2013-07-17 03:04:00,
2013-07-16 23:09:00,72.8,69.4,30.29,NNE,15,0.0,0.0,89,0.00,,---,0.02,0.00,VWS V14.01,2013-07-17 03:09:00,
2013-07-16 23:14:00,72.6,69.2,30.30,NNE,15,0.0,0.0,89,0.00,,---,0.02,0.00,VWS V14.01,2013-07-17 03:14:00,
2013-07-16 23:19:00,72.4,69.0,30.29,NNE,15,0.0,0.0,89,0.00,,---,0.02,0.00,VWS V14.01,2013-07-17 03:19:00,
2013-07-16 23:24:00,72.2,69.1,30.29,NNE,15,0.0,1.0,90,0.00,,---,0.02,0.00,VWS V14.01,2013-07-17 03:24:00,
2013-07-16 23:29:00,72.1,69.0,30.29,NNE,15,0.0,1.0,90,0.00,,---,0.02,0.00,VWS V14.01,2013-07-17 03:29:00,
2013-07-16 23:30:00,71.9,69.1,30.30,NNE,15,0.0,1.0,91,0.00,,---,0.02,0.00,VWS V14.01,2013-07-17 03:30:00,
2013-07-16 23:34:00,71.9,69.1,30.30,NNE,15,0.0,0.0,91,0.00,,---,0.02,0.00,VWS V14.01,2013-07-17 03:34:00,
2013-07-16 23:39:00,71.8,69.0,30.30,NNE,15,0.0,0.0,91,0.00,,---,0.02,0.00,VWS V14.01,2013-07-17 03:39:00,
2013-07-16 23:44:00,71.8,69.0,30.30,NNE,15,0.0,0.0,91,0.01,,---,0.03,0.00,VWS V14.01,2013-07-17 03:44:00,
2013-07-16 23:50:00,71.7,68.9,30.30,NNE,15,0.0,0.0,91,0.01,,---,0.03,0.00,VWS V14.01,2013-07-17 03:50:00,
2013-07-16 23:55:00,71.6,68.8,30.30,NNE,15,0.0,0.0,91,0.01,,---,0.03,0.00,VWS V14.01,2013-07-17 03:55:00,